WX2NJ Weather Reports


time (UTC)temp
C
wind
direction
speed
KPH
gust
KPH
rain 1hr
cm
rain 24hr
cm
rain mn
cm
humidity
%
barometer
mb
20260506192511 20 184 9.7 12.9 0.00 0.00 0.00 73 1011.5
20260506192007 20 162 8.0 14.5 0.00 0.00 0.00 74 1011.3
20260506191504 20 182 4.8 9.7 0.00 0.00 0.00 75 1011.4
20260506191001 20 205 4.8 17.7 0.00 0.00 0.00 75 1011.3
20260506190458 20 188 4.8 11.3 0.00 0.00 0.00 75 1011.5
20260506185954 19 204 8.0 14.5 0.00 0.00 0.00 76 1011.5
20260506185452 19 265 9.7 11.3 0.00 0.00 0.00 77 1011.9
20260506184948 19 121 3.2 11.3 0.00 0.00 0.00 74 1011.8
20260506184446 19 163 8.0 19.3 0.00 0.00 0.00 73 1011.6
20260506183943 20 189 9.7 11.3 0.00 0.00 0.00 72 1011.7
20260506183438 20 167 4.8 12.9 0.00 0.00 0.00 71 1011.7
20260506182935 20 175 6.4 17.7 0.00 0.00 0.00 70 1011.7
20260506182432 20 183 3.2 9.7 0.00 0.00 0.00 69 1011.7
20260506181930 20 187 4.8 16.1 0.00 0.00 0.00 69 1011.7
20260506181428 20 164 4.8 14.5 0.00 0.00 0.00 69 1011.5
20260506180924 20 172 4.8 8.0 0.00 0.00 0.00 70 1011.8
20260506180420 20 171 8.0 16.1 0.00 0.00 0.00 69 1011.9
20260506175918 21 160 8.0 11.3 0.00 0.00 0.00 69 1011.9
20260506175414 21 160 8.0 14.5 0.00 0.00 0.00 69 1012.1
20260506174911 21 150 6.4 17.7 0.00 0.00 0.00 69 1012.1
20260506174409 21 158 12.9 12.9 0.00 0.00 0.00 69 1012.3
20260506173906 21 176 6.4 14.5 0.00 0.00 0.00 69 1012.3
20260506173402 21 162 11.3 11.3 0.00 0.00 0.00 69 1012.1
20260506172859 21 137 6.4 16.1 0.00 0.00 0.00 68 1012.5
20260506172356 21 194 8.0 11.3 0.00 0.00 0.00 70 1012.1
20260506171853 21 164 8.0 9.7 0.00 0.00 0.00 71 1012.0
20260506171351 20 159 6.4 6.4 0.00 0.00 0.00 72 1012.4
20260506170848 20 193 6.4 11.3 0.00 0.00 0.00 73 1012.6
20260506170343 20 135 6.4 8.0 0.00 0.00 0.00 74 1012.6
20260506165838 20 159 6.4 9.7 0.00 0.00 0.00 73 1012.6
20260506165335 20 167 4.8 8.0 0.00 0.00 0.00 73 1012.9
20260506164831 20 158 11.3 11.3 0.00 0.00 0.00 73 1013.1
20260506164328 20 186 4.8 17.7 0.00 0.00 0.00 73 1013.3
20260506163826 20 157 8.0 11.3 0.00 0.00 0.00 73 1013.4
20260506163320 20 128 8.0 12.9 0.00 0.00 0.00 72 1013.4
20260506162816 20 161 9.7 9.7 0.00 0.00 0.00 72 1013.5
20260506162314 20 187 6.4 8.0 0.00 0.00 0.00 72 1013.5
20260506161811 20 172 4.8 11.3 0.00 0.00 0.00 72 1013.6
20260506161308 19 169 6.4 11.3 0.00 0.00 0.00 72 1013.4
20260506160806 20 160 8.0 9.7 0.00 0.00 0.00 72 1013.6
20260506160302 20 160 9.7 9.7 0.00 0.00 0.00 71 1013.6
20260506155801 20 254 3.2 14.5 0.00 0.00 0.00 72 1013.6
20260506155257 20 180 6.4 8.0 0.00 0.00 0.00 72 1013.7
20260506153410 20 163 4.8 9.7 0.00 0.00 0.00 71 1013.6
20260506152907 20 157 4.8 14.5 0.00 0.00 0.00 71 1013.7
20260506152404 20 103 8.0 11.3 0.00 0.00 0.00 70 1013.8
20260506151903 20 121 8.0 8.0 0.00 0.00 0.00 71 1013.8
20260506151359 20 156 8.0 8.0 0.00 0.00 0.00 71 1013.8
20260506150857 20 158 3.2 12.9 0.00 0.00 0.00 70 1013.9
20260506150353 20 191 3.2 9.7 0.00 0.00 0.00 70 1013.9
20260506145850 20 160 8.0 8.0 0.00 0.00 0.00 70 1013.9
20260506145346 20 166 6.4 11.3 0.00 0.00 0.00 70 1014.1
20260506144844 20 112 6.4 9.7 0.00 0.00 0.00 69 1013.9
20260506144340 20 192 4.8 17.7 0.00 0.00 0.00 69 1014.0
20260506143838 20 159 8.0 11.3 0.00 0.00 0.00 68 1014.0
20260506143335 21 213 4.8 8.0 0.00 0.00 0.00 68 1014.0
20260506142834 21 154 11.3 12.9 0.00 0.00 0.00 68 1013.9
20260506142331 21 154 11.3 11.3 0.00 0.00 0.00 67 1014.0
20260506141829 20 162 6.4 9.7 0.00 0.00 0.00 68 1014.0
20260506141327 21 198 3.2 9.7 0.00 0.00 0.00 67 1013.9
20260506140825 21 196 6.4 8.0 0.00 0.00 0.00 66 1013.8
20260506140321 21 158 8.0 11.3 0.00 0.00 0.00 66 1013.9
20260506135818 21 187 6.4 12.9 0.00 0.00 0.00 65 1013.9
20260506135315 21 169 8.0 11.3 0.00 0.00 0.00 64 1014.0
20260506134811 22 157 11.3 12.9 0.00 0.00 0.00 63 1014.0
20260506134308 22 246 3.2 8.0 0.00 0.00 0.00 63 1013.9
20260506133805 21 161 4.8 9.7 0.00 0.00 0.00 65 1014.0
20260506133302 22 190 3.2 14.5 0.00 0.00 0.00 63 1014.1
20260506132758 22 157 6.4 11.3 0.00 0.00 0.00 63 1014.4
20260506132256 22 195 3.2 11.3 0.00 0.00 0.00 64 1014.3
20260506131754 21 157 9.7 14.5 0.00 0.00 0.00 64 1014.3
20260506131249 21 142 3.2 9.7 0.00 0.00 0.00 64 1014.3
20260506130746 21 179 8.0 11.3 0.00 0.00 0.00 66 1014.3
20260506130243 21 155 6.4 14.5 0.00 0.00 0.00 65 1014.4
20260506125741 21 166 6.4 9.7 0.00 0.00 0.00 66 1014.1
20260506125239 20 182 4.8 14.5 0.00 0.00 0.00 67 1014.3
20260506124737 20 150 17.7 19.3 0.00 0.00 0.00 67 1014.1
20260506124234 20 184 9.7 12.9 0.00 0.00 0.00 69 1014.2
20260506123732 19 160 8.0 11.3 0.00 0.00 0.00 70 1014.2
20260506123230 19 177 4.8 8.0 0.00 0.00 0.00 70 1014.2
20260506122727 20 180 1.6 17.7 0.00 0.00 0.00 69 1014.2
20260506122224 20 178 4.8 11.3 0.00 0.00 0.00 69 1014.2
20260506121722 19 165 8.0 8.0 0.00 0.00 0.00 70 1014.2
20260506121219 19 157 6.4 9.7 0.00 0.00 0.00 71 1014.3
20260506120716 18 153 11.3 11.3 0.00 0.00 0.00 74 1014.4
20260506120213 18 198 6.4 14.5 0.00 0.00 0.00 72 1014.2
20260506115711 18 176 4.8 12.9 0.00 0.00 0.00 72 1014.1
20260506115209 18 154 12.9 17.7 0.00 0.00 0.00 72 1014.3
20260506114707 18 159 4.8 11.3 0.00 0.00 0.00 73 1014.5
20260506114204 18 177 4.8 9.7 0.00 0.00 0.00 73 1014.5
20260506113703 18 161 8.0 14.5 0.00 0.00 0.00 73 1014.4
20260506113200 18 168 6.4 9.7 0.00 0.00 0.00 74 1014.5
20260506112655 18 182 4.8 14.5 0.00 0.00 0.00 74 1014.6
20260506112153 17 188 3.2 9.7 0.00 0.00 0.00 75 1014.5
20260506111651 17 159 8.0 12.9 0.00 0.00 0.00 75 1014.4
20260506111149 17 10 3.2 19.3 0.00 0.00 0.00 75 1014.6
20260506110646 17 174 6.4 12.9 0.00 0.00 0.00 75 1014.1
20260506110143 17 158 8.0 12.9 0.00 0.00 0.00 76 1014.3
20260506105639 17 136 11.3 11.3 0.00 0.00 0.00 78 1014.5
20260506105137 17 157 8.0 8.0 0.00 0.00 0.00 78 1014.3
20260506104634 16 180 8.0 8.0 0.00 0.00 0.00 80 1014.3
20260506104132 16 191 8.0 9.7 0.00 0.00 0.00 81 1014.4
20260506103629 16 152 4.8 9.7 0.00 0.00 0.00 82 1014.5
20260506103126 16 190 4.8 11.3 0.00 0.00 0.00 82 1014.5
20260506102624 16 191 6.4 14.5 0.00 0.00 0.00 82 1014.3
20260506102121 16 161 6.4 11.3 0.00 0.00 0.00 82 1014.4
20260506101617 16 152 8.0 9.7 0.00 0.00 0.00 82 1014.3
20260506101114 16 183 6.4 9.7 0.00 0.00 0.00 82 1014.4
20260506100613 16 135 4.8 12.9 0.00 0.00 0.00 82 1014.1
20260506100110 16 158 6.4 9.7 0.00 0.00 0.00 82 1014.2
20260506095609 16 195 3.2 9.7 0.00 0.00 0.00 82 1014.0
20260506095106 16 156 8.0 11.3 0.00 0.00 0.00 82 1014.2
20260506094603 16 174 4.8 14.5 0.00 0.00 0.00 82 1014.1
20260506094100 16 180 4.8 11.3 0.00 0.00 0.00 82 1014.2
20260506093559 16 154 6.4 11.3 0.00 0.00 0.00 83 1014.0
20260506093056 16 203 6.4 14.5 0.00 0.00 0.00 83 1014.2
20260506092554 16 152 6.4 14.5 0.00 0.00 0.00 83 1014.2
20260506092050 16 158 11.3 11.3 0.00 0.00 0.00 83 1014.4
20260506091548 16 148 4.8 8.0 0.00 0.00 0.00 83 1014.5
20260506091046 16 159 8.0 12.9 0.00 0.00 0.00 83 1014.3
20260506090543 16 162 11.3 16.1 0.00 0.00 0.00 83 1014.5
20260506090039 16 169 4.8 9.7 0.00 0.00 0.00 83 1014.6
20260506085536 16 182 4.8 9.7 0.00 0.00 0.00 83 1014.5
20260506085033 16 185 8.0 11.3 0.00 0.00 0.00 83 1014.5
20260506084530 16 137 9.7 12.9 0.00 0.00 0.00 83 1014.5
20260506084025 16 154 4.8 8.0 0.00 0.00 0.00 83 1014.8
20260506083523 16 178 4.8 8.0 0.00 0.00 0.00 83 1014.5
20260506083021 16 178 4.8 11.3 0.00 0.00 0.00 83 1014.6
20260506082517 16 181 6.4 8.0 0.00 0.00 0.00 83 1014.7
20260506082013 16 228 3.2 6.4 0.00 0.00 0.00 83 1014.6
20260506081511 16 180 8.0 12.9 0.00 0.00 0.00 83 1014.7
20260506081009 16 152 6.4 8.0 0.00 0.00 0.00 82 1014.6
20260506080506 16 160 4.8 12.9 0.00 0.00 0.00 82 1014.7
20260506073449 16 195 8.0 11.3 0.00 0.00 0.00 81 1014.6
20260506072946 16 187 6.4 12.9 0.00 0.00 0.00 81 1014.8
20260506072443 16 190 6.4 11.3 0.00 0.00 0.00 81 1014.9
20260506071941 16 160 6.4 9.7 0.00 0.00 0.00 81 1014.9
20260506071439 16 176 9.7 9.7 0.00 0.00 0.00 81 1014.8
20260506070936 16 158 6.4 8.0 0.00 0.00 0.00 81 1014.9
20260506070433 16 177 4.8 9.7 0.00 0.00 0.00 80 1015.0
20260506062410 16 198 4.8 8.0 0.00 0.00 0.00 79 1014.6
20260506061906 16 187 3.2 9.7 0.00 0.00 0.00 78 1014.6
20260506061403 16 161 9.7 9.7 0.00 0.00 0.00 78 1014.7
20260506060901 16 181 9.7 16.1 0.00 0.00 0.00 78 1014.8
20260506060358 16 163 8.0 9.7 0.00 0.00 0.00 78 1014.9
20260506051330 16 180 3.2 9.7 0.00 0.00 0.00 77 1015.2
20260506050828 17 177 3.2 9.7 0.00 0.00 0.00 77 1015.1
20260506050325 17 165 4.8 8.0 0.00 0.00 0.00 77 1015.4
20260506044816 17 180 1.6 20.9 0.00 0.00 0.00 76 1015.3
20260506044314 17 177 4.8 14.5 0.00 0.00 0.00 76 1015.3
20260506043810 17 143 6.4 8.0 0.00 0.00 0.00 76 1015.2
20260506043308 17 161 6.4 11.3 0.00 0.00 0.00 76 1015.2
20260506042806 17 155 6.4 11.3 0.00 0.00 0.00 76 1015.2
20260506042305 17 163 8.0 8.0 0.00 0.00 0.00 76 1015.4
20260506041803 17 120 0.0 8.0 0.00 0.00 0.00 75 1015.3
20260506041259 17 206 4.8 11.3 0.00 0.00 0.00 75 1015.2
20260506040757 17 164 8.0 14.5 0.00 0.00 0.00 74 1015.3
20260506040254 17 168 8.0 16.1 0.00 0.00 0.00 74 1015.2
20260506035750 17 177 8.0 11.3 0.00 0.00 0.00 74 1015.3
20260506035247 17 161 8.0 12.9 0.00 0.00 0.00 73 1015.2
20260506034744 17 161 9.7 9.7 0.00 0.00 0.00 73 1015.5
20260506034242 17 164 6.4 11.3 0.00 0.00 0.00 72 1015.4
20260506033739 17 146 8.0 11.3 0.00 0.00 0.00 72 1015.3
20260506033236 18 158 6.4 14.5 0.00 0.00 0.00 71 1015.2
20260506032733 18 145 11.3 12.9 0.00 0.00 0.00 71 1015.3
20260506032230 18 158 6.4 16.1 0.00 0.00 0.00 71 1015.1
20260506031726 18 214 6.4 11.3 0.00 0.00 0.00 71 1015.1
20260506031223 18 163 6.4 9.7 0.00 0.00 0.00 70 1015.2
20260506030722 18 162 8.0 22.5 0.00 0.00 0.00 70 1015.2
20260506030219 18 160 8.0 17.7 0.00 0.00 0.00 70 1015.3
20260506025716 18 162 9.7 11.3 0.00 0.00 0.00 70 1015.2
20260506025212 18 225 4.8 16.1 0.00 0.00 0.00 69 1015.2
20260506024709 18 171 6.4 20.9 0.00 0.00 0.00 69 1015.4
20260506024206 18 169 8.0 20.9 0.00 0.00 0.00 69 1015.4
20260506023702 18 319 3.2 17.7 0.00 0.00 0.00 69 1015.5
20260506023200 18 201 8.0 17.7 0.00 0.00 0.00 68 1015.6
20260506022656 18 167 24.1 24.1 0.00 0.00 0.00 68 1015.5
20260506022154 18 167 8.0 9.7 0.00 0.00 0.00 68 1015.4
20260506021652 18 158 11.3 16.1 0.00 0.00 0.00 68 1015.5
20260506021148 18 162 11.3 14.5 0.00 0.00 0.00 68 1015.4
20260506020645 18 246 3.2 12.9 0.00 0.00 0.00 68 1015.6
20260506020143 18 206 8.0 14.5 0.00 0.00 0.00 68 1015.5
20260506015641 18 162 6.4 12.9 0.00 0.00 0.00 68 1015.4
20260506015138 18 178 9.7 14.5 0.00 0.00 0.00 68 1015.6
20260506014635 19 255 1.6 16.1 0.00 0.00 0.00 68 1015.2
20260506014130 19 174 6.4 16.1 0.00 0.00 0.00 68 1015.2
20260506013629 19 170 6.4 14.5 0.00 0.00 0.00 68 1015.4
20260506013126 19 170 6.4 30.6 0.00 0.00 0.00 67 1015.5
20260506012622 19 176 8.0 14.5 0.00 0.00 0.00 67 1015.3
20260506012118 19 193 4.8 14.5 0.00 0.00 0.00 67 1015.2
20260506011616 19 168 9.7 12.9 0.00 0.00 0.00 67 1015.2
20260506011112 19 154 12.9 19.3 0.00 0.00 0.00 67 1015.1
20260506010606 19 191 8.0 17.7 0.00 0.00 0.00 66 1015.3
20260506005559 20 128 8.0 20.9 0.00 0.00 0.00 64 1015.1
20260506005055 20 166 9.7 19.3 0.00 0.00 0.00 63 1015.3
20260506004553 20 159 11.3 17.7 0.00 0.00 0.00 62 1015.1
20260506004049 20 180 8.0 16.1 0.00 0.00 0.00 62 1015.2
20260506003546 20 180 6.4 11.3 0.00 0.00 0.00 61 1014.8
20260506003042 20 170 4.8 24.1 0.00 0.00 0.00 61 1015.0
20260506002538 20 180 6.4 14.5 0.00 0.00 0.00 61 1014.9
20260506002034 20 180 6.4 27.4 0.00 0.00 0.00 61 1014.9
20260506001530 20 183 11.3 14.5 0.00 0.00 0.00 61 1014.7
20260506001028 20 184 9.7 17.7 0.00 0.00 0.00 60 1014.7
20260506000525 20 163 8.0 12.9 0.00 0.00 0.00 60 1014.6
20260506000023 20 186 9.7 12.9 0.00 0.00 0.00 60 1014.5
20260505235521 20 154 6.4 11.3 0.00 0.00 0.00 59 1014.5
20260505235017 20 182 6.4 12.9 0.00 0.00 0.00 58 1014.4
20260505234514 20 191 8.0 25.7 0.00 0.00 0.00 58 1014.6
20260505234011 20 181 12.9 19.3 0.00 0.00 0.00 58 1014.3
20260505233508 20 169 3.2 12.9 0.00 0.00 0.00 58 1014.3
20260505233006 20 255 1.6 16.1 0.00 0.00 0.00 57 1014.4
20260505232504 20 154 11.3 17.7 0.00 0.00 0.00 57 1014.4
20260505232001 21 176 6.4 22.5 0.00 0.00 0.00 56 1014.2
20260505231457 21 172 9.7 19.3 0.00 0.00 0.00 56 1014.3
20260505230956 21 189 9.7 14.5 0.00 0.00 0.00 56 1014.4
20260505230453 21 212 4.8 11.3 0.00 0.00 0.00 55 1014.3
20260505225949 21 80 6.4 17.7 0.00 0.00 0.00 55 1014.1
20260505225447 21 225 4.8 25.7 0.00 0.00 0.00 54 1014.1
20260505224942 21 210 6.4 17.7 0.00 0.00 0.00 54 1014.0
20260505224439 21 156 11.3 12.9 0.00 0.00 0.00 54 1014.0
20260505223937 21 197 3.2 16.1 0.00 0.00 0.00 53 1013.8
20260505223433 22 192 11.3 17.7 0.00 0.00 0.00 53 1013.8
20260505222930 22 172 4.8 22.5 0.00 0.00 0.00 52 1014.1
20260505222426 22 180 6.4 17.7 0.00 0.00 0.00 51 1014.0
20260505221922 22 184 0.0 9.7 0.00 0.00 0.00 51 1013.6
20260505221420 22 184 6.4 17.7 0.00 0.00 0.00 51 1013.7
20260505220917 22 164 4.8 9.7 0.00 0.00 0.00 52 1013.7
20260505220414 22 148 4.8 12.9 0.00 0.00 0.00 52 1013.7
20260505215911 22 169 8.0 11.3 0.00 0.00 0.00 51 1013.7
20260505215409 22 180 4.8 9.7 0.00 0.00 0.00 50 1013.3
20260505214907 23 196 9.7 14.5 0.00 0.00 0.00 49 1013.3
20260505214404 23 161 11.3 12.9 0.00 0.00 0.00 49 1013.5
20260505213901 23 180 6.4 16.1 0.00 0.00 0.00 48 1013.3
20260505213359 23 172 8.0 20.9 0.00 0.00 0.00 48 1013.2
20260505212855 23 185 4.8 11.3 0.00 0.00 0.00 47 1013.4
20260505212352 23 169 12.9 25.7 0.00 0.00 0.00 46 1013.4
20260505211848 23 307 4.8 20.9 0.00 0.00 0.00 45 1013.1
20260505211346 25 183 14.5 17.7 0.00 0.00 0.00 44 1013.3
20260505210842 24 184 6.4 11.3 0.00 0.00 0.00 46 1013.1
20260505210339 25 157 17.7 17.7 0.00 0.00 0.00 46 1013.1
20260505205836 24 186 11.3 20.9 0.00 0.00 0.00 47 1013.1
20260505205334 25 180 4.8 17.7 0.00 0.00 0.00 46 1013.0
20260505204831 25 167 4.8 11.3 0.00 0.00 0.00 46 1012.8
20260505204329 25 158 14.5 16.1 0.00 0.00 0.00 47 1013.2
20260505203826 25 160 19.3 19.3 0.00 0.00 0.00 47 1013.2
20260505203322 25 183 4.8 14.5 0.00 0.00 0.00 47 1013.0
20260505202819 25 211 6.4 11.3 0.00 0.00 0.00 46 1013.1
20260505202315 25 192 1.6 24.1 0.00 0.00 0.00 47 1013.0
20260505201812 25 177 8.0 14.5 0.00 0.00 0.00 46 1013.2
20260505201309 25 180 4.8 14.5 0.00 0.00 0.00 48 1012.9
20260505200807 25 218 8.0 8.0 0.00 0.00 0.00 47 1012.9
20260505200304 25 115 3.2 14.5 0.00 0.00 0.00 50 1013.1
20260505195759 24 151 8.0 11.3 0.00 0.00 0.00 52 1013.2
20260505195257 25 161 4.8 9.7 0.00 0.00 0.00 51 1013.0
20260505194754 25 168 11.3 14.5 0.00 0.00 0.00 51 1013.2
20260505194251 24 180 9.7 17.7 0.00 0.00 0.00 52 1013.4
20260505193746 24 188 9.7 11.3 0.00 0.00 0.00 52 1013.3
20260505193244 25 168 6.4 17.7 0.00 0.00 0.00 51 1013.2